Location: Most
(50.5133°N, 13.6207°E)
Time: 09:46:22
(UTC+02:00)

ISS - Pass Details

Date: 17 July 2018
Orbit: 402 x 408 km, 51.6° (Epoch: 17 July)

Event Time Altitude Azimuth Distance (km) Brightness Sun altitude
Exits shadow 00:08:35 14° 92° (E) 1,237 -1.6 -16.9°
Drops below altitude 10° 00:09:15 10° 85° (E) 1,468 -1.1 -16.9°
Sets 00:11:29 0° 74° (ENE) 2,333 0.0 -17.0°
